Hourly Weather Bolshie Lyzki

Today, 23 June, Wednesday

Time Temperature Precipitation Wind Pressure Humidity
00:00 +22°C° 0 mm 3 mps 746 mmHg 91%
01:00 +21°C° 0 mm 2 mps 747 mmHg 92%
02:00 +21°C° 0 mm 2 mps 747 mmHg 93%
03:00 +21°C° 0 mm 2 mps 747 mmHg 93%
04:00 +23°C° 0 mm 2 mps 747 mmHg 92%
05:00 +23°C° 0 mm 2 mps 747 mmHg 92%
06:00 +24°C° 0 mm 3 mps 747 mmHg 86%
07:00 +26°C° 0 mm 3 mps 747 mmHg 81%
08:00 +28°C° 0 mm 4 mps 747 mmHg 75%
09:00 +29°C° 0 mm 4 mps 747 mmHg 70%
10:00 +30°C° 0 mm 4 mps 748 mmHg 65%
11:00 +32°C° 0 mm 4 mps 748 mmHg 60%
12:00 +33°C° 0 mm 4 mps 748 mmHg 57%
13:00 +33°C° 0 mm 3 mps 748 mmHg 53%
14:00 +34°C° 0 mm 3 mps 748 mmHg 50%
15:00 +34°C° 0 mm 3 mps 747 mmHg 53%
16:00 +34°C° 0 mm 2 mps 747 mmHg 56%
17:00 +34°C° 0 mm 2 mps 747 mmHg 59%
18:00 +31°C° 0 mm 2 mps 747 mmHg 64%
19:00 +29°C° 0 mm 2 mps 747 mmHg 68%
20:00 +27°C° 0 mm 2 mps 747 mmHg 73%
21:00 +26°C° 0 mm 2 mps 747 mmHg 76%
22:00 +25°C° 0 mm 2 mps 747 mmHg 79%
23:00 +24°C° 0 mm 2 mps 747 mmHg 83%

Tomorrow, 24 June, Thursday

Time Temperature Precipitation Wind Pressure Humidity
00:00 +23°C° 0 mm 2 mps 748 mmHg 86%
01:00 +23°C° 0 mm 2 mps 748 mmHg 88%
02:00 +23°C° 0 mm 2 mps 748 mmHg 91%
03:00 +23°C° 0 mm 2 mps 748 mmHg 92%
04:00 +23°C° 0 mm 2 mps 747 mmHg 92%
05:00 +23°C° 0 mm 2 mps 747 mmHg 92%
06:00 +25°C° 0 mm 2 mps 747 mmHg 87%
07:00 +27°C° 0 mm 2 mps 748 mmHg 81%
08:00 +28°C° 0 mm 3 mps 748 mmHg 76%
09:00 +29°C° 0 mm 3 mps 748 mmHg 70%
10:00 +30°C° 0 mm 2 mps 748 mmHg 64%
11:00 +32°C° 0 mm 2 mps 748 mmHg 57%
12:00 +32°C° 0 mm 2 mps 747 mmHg 54%
13:00 +34°C° 0 mm 2 mps 747 mmHg 51%
14:00 +34°C° 0 mm 2 mps 747 mmHg 47%
15:00 +34°C° 0 mm 2 mps 747 mmHg 51%
16:00 +34°C° 0 mm 2 mps 746 mmHg 55%
17:00 +34°C° 0 mm 2 mps 746 mmHg 59%
18:00 +31°C° 0 mm 2 mps 746 mmHg 64%
19:00 +29°C° 0 mm 2 mps 746 mmHg 69%
20:00 +27°C° 0 mm 2 mps 745 mmHg 75%
21:00 +26°C° 0 mm 2 mps 745 mmHg 76%
22:00 +25°C° 0 mm 2 mps 745 mmHg 78%
23:00 +25°C° 0 mm 2 mps 745 mmHg 80%

Day after tomorrow, 25 June, Friday

Time Temperature Precipitation Wind Pressure Humidity
00:00 +24°C° 0.1 mm 2 mps 745 mmHg 83%
01:00 +24°C° 0.1 mm 2 mps 745 mmHg 86%
02:00 +23°C° 0.1 mm 2 mps 745 mmHg 89%
03:00 +23°C° 0 mm 2 mps 745 mmHg 90%
04:00 +23°C° 0 mm 2 mps 745 mmHg 90%
05:00 +24°C° 0 mm 2 mps 745 mmHg 90%
06:00 +25°C° 0 mm 2 mps 745 mmHg 84%
07:00 +27°C° 0 mm 3 mps 745 mmHg 78%
08:00 +28°C° 0 mm 3 mps 745 mmHg 72%
09:00 +29°C° 0 mm 3 mps 745 mmHg 66%
10:00 +32°C° 0 mm 4 mps 745 mmHg 61%
11:00 +33°C° 0 mm 4 mps 745 mmHg 55%
12:00 +33°C° 0 mm 4 mps 745 mmHg 54%
13:00 +34°C° 0 mm 4 mps 745 mmHg 52%
14:00 +34°C° 0 mm 3 mps 745 mmHg 51%
15:00 +34°C° 0 mm 3 mps 744 mmHg 54%
16:00 +33°C° 0 mm 3 mps 743 mmHg 58%
17:00 +33°C° 0 mm 3 mps 743 mmHg 61%
18:00 +30°C° 0.3 mm 3 mps 743 mmHg 68%
19:00 +28°C° 0.3 mm 3 mps 743 mmHg 75%
20:00 +26°C° 0.3 mm 2 mps 743 mmHg 82%
21:00 +24°C° 1.9 mm 3 mps 743 mmHg 85%
22:00 +21°C° 1.9 mm 3 mps 743 mmHg 89%
23:00 +19°C° 1.9 mm 3 mps 743 mmHg 92%

26 June, Saturday

Time Temperature Precipitation Wind Pressure Humidity
00:00 +19°C° 0.4 mm 3 mps 743 mmHg 93%
01:00 +19°C° 0.4 mm 3 mps 743 mmHg 93%
02:00 +19°C° 0.4 mm 2 mps 743 mmHg 94%
03:00 +20°C° 0.1 mm 2 mps 743 mmHg 93%
04:00 +20°C° 0.1 mm 2 mps 743 mmHg 93%
05:00 +21°C° 0.1 mm 2 mps 743 mmHg 93%
06:00 +24°C° 0.1 mm 2 mps 743 mmHg 88%
07:00 +25°C° 0.1 mm 2 mps 743 mmHg 84%
08:00 +27°C° 0.1 mm 2 mps 743 mmHg 79%
09:00 +28°C° 0.1 mm 2 mps 743 mmHg 73%
10:00 +29°C° 0.1 mm 3 mps 743 mmHg 67%
11:00 +31°C° 0.1 mm 3 mps 743 mmHg 62%
12:00 +31°C° 0 mm 3 mps 743 mmHg 58%
13:00 +31°C° 0 mm 3 mps 743 mmHg 55%
14:00 +32°C° 0 mm 2 mps 743 mmHg 52%
15:00 +31°C° 0.2 mm 3 mps 742 mmHg 58%
16:00 +30°C° 0.2 mm 3 mps 742 mmHg 64%
17:00 +29°C° 0.2 mm 3 mps 741 mmHg 69%
18:00 +26°C° 2 mm 3 mps 742 mmHg 76%
19:00 +24°C° 2 mm 3 mps 742 mmHg 83%
20:00 +20°C° 2 mm 2 mps 743 mmHg 89%
21:00 +19°C° 0.2 mm 2 mps 742 mmHg 90%
22:00 +19°C° 0.2 mm 2 mps 742 mmHg 90%
23:00 +19°C° 0.2 mm 1 mps 742 mmHg 91%

27 June, Sunday

Time Temperature Precipitation Wind Pressure Humidity
00:00 +18°C° 0.1 mm 2 mps 742 mmHg 92%
01:00 +18°C° 0.1 mm 2 mps 743 mmHg 94%
02:00 +18°C° 0.1 mm 2 mps 743 mmHg 95%
03:00 +18°C° 0 mm 2 mps 743 mmHg 95%
04:00 +20°C° 0 mm 1 mps 742 mmHg 95%
05:00 +20°C° 0 mm 1 mps 742 mmHg 94%
06:00 +21°C° 0 mm 1 mps 742 mmHg 92%
07:00 +22°C° 0 mm 1 mps 743 mmHg 90%
08:00 +23°C° 0 mm 1 mps 743 mmHg 87%
09:00 +23°C° 0.2 mm 1 mps 743 mmHg 85%
10:00 +24°C° 0.2 mm 1 mps 743 mmHg 82%
11:00 +25°C° 0.2 mm 1 mps 743 mmHg 79%
12:00 +25°C° 0.9 mm 2 mps 743 mmHg 80%
13:00 +25°C° 0.9 mm 2 mps 743 mmHg 80%
14:00 +25°C° 0.9 mm 3 mps 743 mmHg 80%
15:00 +25°C° 0.4 mm 3 mps 743 mmHg 81%
16:00 +25°C° 0.4 mm 3 mps 743 mmHg 81%
17:00 +25°C° 0.4 mm 3 mps 743 mmHg 82%
18:00 +24°C° 0.1 mm 2 mps 743 mmHg 84%
19:00 +23°C° 0.1 mm 2 mps 743 mmHg 85%
20:00 +23°C° 0.1 mm 1 mps 743 mmHg 87%
21:00 +21°C° 0 mm 2 mps 743 mmHg 89%
22:00 +20°C° 0 mm 2 mps 743 mmHg 91%
23:00 +19°C° 0 mm 3 mps 743 mmHg 93%

28 June, Monday

Time Temperature Precipitation Wind Pressure Humidity
00:00 +18°C° 0 mm 3 mps 743 mmHg 94%
01:00 +18°C° 0 mm 3 mps 743 mmHg 94%
02:00 +17°C° 0 mm 3 mps 743 mmHg 95%
03:00 +17°C° 0 mm 3 mps 743 mmHg 94%
04:00 +17°C° 0 mm 3 mps 743 mmHg 94%
05:00 +17°C° 0 mm 3 mps 743 mmHg 94%
06:00 +19°C° 0 mm 3 mps 743 mmHg 90%
07:00 +20°C° 0 mm 4 mps 743 mmHg 86%
08:00 +21°C° 0 mm 5 mps 742 mmHg 83%
09:00 +22°C° 0 mm 4 mps 743 mmHg 79%
10:00 +23°C° 0 mm 4 mps 743 mmHg 75%
11:00 +25°C° 0 mm 4 mps 743 mmHg 72%
12:00 +25°C° 0.1 mm 4 mps 743 mmHg 71%
13:00 +25°C° 0.1 mm 4 mps 743 mmHg 71%
14:00 +25°C° 0.1 mm 4 mps 743 mmHg 70%
15:00 +25°C° 0.1 mm 4 mps 742 mmHg 72%
16:00 +23°C° 0.1 mm 4 mps 742 mmHg 74%
17:00 +24°C° 0.1 mm 3 mps 742 mmHg 76%
18:00 +22°C° 0 mm 3 mps 742 mmHg 76%
19:00 +22°C° 0 mm 4 mps 742 mmHg 77%
20:00 +21°C° 0 mm 4 mps 742 mmHg 77%
21:00 +20°C° 0 mm 4 mps 742 mmHg 76%
22:00 +20°C° 0 mm 4 mps 742 mmHg 75%
23:00 +19°C° 0 mm 4 mps 742 mmHg 73%
Show more